Manteo, NC

3:01 AM EDT on October 18, 2017 (GMT -0400)
Dare County Regional

Weather History for KMQI - May, 2013

Change the Weather History Date:

Saturday, May 18, 2013

  Actual Average Record
Temperature  
Mean Temperature 71 °F -  
Max Temperature 75 °F 72 °F 88 °F (1987)
Min Temperature 67 °F 59 °F 50 °F (1967)
Cooling Degree Days 6    
Growing Degree Days 21 (Base 50)    
Moisture  
Dew Point 65 °F    
Average Humidity 83    
Maximum Humidity 90    
Minimum Humidity 74    
Precipitation  
Precipitation 0.15 in - - ()
Sea Level Pressure  
Sea Level Pressure 30.17 in    
Wind  
Wind Speed 10 mph (SE)    
Max Wind Speed 17 mph    
Max Gust Speed 22 mph    
Visibility 10 miles    
Events Rain    
Averages and records for this station are not official NWS values.
T = Trace of Precipitation, MM = Missing Value Source: NWS Daily Summary

Daily Weather History Graph

Daily Weather History Graph

Search for Another Location

Airport or City:

Trip Planner

Search our weather history database for the weather conditions in past years. The results will help you decide how hot, cold, wet, or windy it might be!

Date:

Astronomy

May. 18, 2013 Rise Set
Actual Time 5:54 AM EDT 8:04 PM EDT
Civil Twilight 5:26 AM EDT 8:32 PM EDT
Nautical Twilight 4:51 AM EDT 9:08 PM EDT
Astronomical Twilight 4:13 AM EDT 9:46 PM EDT
Moon 1:17 PM EDT 1:32 AM EDT
Length of Visible Light 15h 06m
Length of Day
14h 09m
First Quarter, 55% of the Moon is Illuminated
May 18
First Quarter
May 25
Full
May 31
Last Quarter
Jun 8
New
Jun 16
First Quarter

Hourly Weather History & Observations

Time (EDT) Temp. Dew Point Humidity Pressure Visibility Wind Dir Wind Speed Gust Speed Precip Events Conditions
12:35 AM 68.0 °F 62.8 °F 83% 30.17 in 10.0 mi ESE 10.4 mph - N/A   Overcast
12:55 AM 68.2 °F 63.3 °F 84% 30.16 in 10.0 mi East 10.4 mph - N/A   Overcast
1:15 AM 68.0 °F 63.5 °F 85% 30.16 in 10.0 mi ESE 9.2 mph - N/A   Mostly Cloudy
1:35 AM 68.0 °F 63.5 °F 85% 30.15 in 10.0 mi ESE 10.4 mph - N/A   Scattered Clouds
1:55 AM 68.4 °F 63.9 °F 85% 30.14 in 10.0 mi ESE 10.4 mph - N/A   Mostly Cloudy
2:15 AM 68.9 °F 63.9 °F 84% 30.15 in 10.0 mi ESE 9.2 mph - N/A   Mostly Cloudy
2:35 AM 69.1 °F 63.9 °F 83% 30.14 in 10.0 mi ESE 10.4 mph - N/A   Mostly Cloudy
2:55 AM 69.8 °F 63.7 °F 81% 30.14 in 10.0 mi SE 9.2 mph - N/A   Mostly Cloudy
3:15 AM 70.2 °F 63.5 °F 79% 30.14 in 10.0 mi ESE 8.1 mph - N/A   Overcast
3:35 AM 70.0 °F 63.5 °F 80% 30.14 in 10.0 mi ESE 8.1 mph - N/A   Mostly Cloudy
3:55 AM 69.3 °F 64.4 °F 84% 30.14 in 10.0 mi ESE 11.5 mph - N/A   Light Drizzle
4:15 AM 68.9 °F 64.4 °F 86% 30.14 in 10.0 mi ESE 8.1 mph - N/A   Mostly Cloudy
4:35 AM 68.5 °F 64.0 °F 85% 30.14 in 10.0 mi ESE 10.4 mph - N/A   Overcast
4:55 AM 68.9 °F 64.2 °F 85% 30.15 in 10.0 mi East 5.8 mph - N/A Rain Light Rain
5:15 AM 68.5 °F 64.2 °F 86% 30.14 in 10.0 mi ESE 10.4 mph - N/A Rain Light Rain
5:35 AM 68.9 °F 63.9 °F 84% 30.14 in 10.0 mi ESE 11.5 mph - N/A   Mostly Cloudy
5:55 AM 69.1 °F 63.9 °F 83% 30.15 in 10.0 mi ESE 8.1 mph - N/A   Mostly Cloudy
6:15 AM 69.3 °F 63.9 °F 83% 30.16 in 10.0 mi ESE 8.1 mph - N/A   Scattered Clouds
6:35 AM 69.8 °F 64.0 °F 82% 30.17 in 10.0 mi ESE 11.5 mph - N/A   Scattered Clouds
6:55 AM 69.8 °F 64.6 °F 83% 30.17 in 10.0 mi ESE 10.4 mph - N/A   Mostly Cloudy
7:15 AM 70.9 °F 64.8 °F 81% 30.17 in 10.0 mi ESE 10.4 mph 17.3 mph N/A   Mostly Cloudy
7:35 AM 70.7 °F 64.6 °F 81% 30.17 in 10.0 mi ESE 12.7 mph - N/A   Overcast
7:55 AM 71.2 °F 64.6 °F 79% 30.19 in 10.0 mi ESE 12.7 mph 17.3 mph N/A   Overcast
8:15 AM 70.7 °F 64.0 °F 79% 30.18 in 10.0 mi ESE 12.7 mph 18.4 mph N/A   Overcast
8:35 AM 70.7 °F 63.7 °F 78% 30.19 in 10.0 mi East 9.2 mph - N/A Rain Light Rain
8:55 AM 68.0 °F 64.8 °F 89% 30.21 in 2.0 mi WNW 3.5 mph - 0.15 in Rain Rain
9:15 AM 67.8 °F 64.8 °F 90% 30.21 in 10.0 mi NE 4.6 mph - N/A Rain Light Rain
9:35 AM 68.4 °F 65.3 °F 90% 30.21 in 10.0 mi ESE 4.6 mph - N/A   Light Drizzle
9:55 AM 69.3 °F 65.8 °F 89% 30.21 in 7.0 mi ESE 4.6 mph - N/A Rain Light Rain
10:15 AM 69.8 °F 66.2 °F 88% 30.21 in 10.0 mi SSE 5.8 mph - N/A   Overcast
10:35 AM 70.5 °F 66.4 °F 87% 30.21 in 10.0 mi SE 4.6 mph - N/A   Overcast
10:55 AM 70.9 °F 65.8 °F 84% 30.22 in 10.0 mi ESE 4.6 mph - N/A   Overcast
11:15 AM 70.5 °F 66.2 °F 86% 30.21 in 10.0 mi East 10.4 mph - N/A   Mostly Cloudy
11:35 AM 68.4 °F 64.8 °F 88% 30.22 in 10.0 mi East 10.4 mph - N/A   Overcast
11:55 AM 68.5 °F 64.9 °F 88% 30.21 in 7.0 mi ESE 11.5 mph - N/A   Overcast
12:15 PM 70.2 °F 65.7 °F 86% 30.21 in 10.0 mi ESE 10.4 mph - N/A   Mostly Cloudy
12:35 PM 70.0 °F 64.8 °F 83% 30.21 in 10.0 mi ESE 10.4 mph - N/A   Overcast
12:55 PM 69.1 °F 65.5 °F 88% 30.20 in 10.0 mi ESE 10.4 mph - N/A Rain Light Rain
1:15 PM 69.3 °F 64.8 °F 86% 30.19 in 10.0 mi ESE 11.5 mph 18.4 mph N/A   Overcast
1:35 PM 71.1 °F 65.7 °F 83% 30.19 in 10.0 mi ESE 12.7 mph - N/A   Scattered Clouds
1:55 PM 73.0 °F 65.7 °F 78% 30.18 in 10.0 mi ESE 13.8 mph 19.6 mph N/A   Clear
2:15 PM 73.9 °F 65.1 °F 74% 30.17 in 10.0 mi SE 17.3 mph 20.7 mph N/A   Clear
2:35 PM 73.2 °F 65.5 °F 77% 30.17 in 10.0 mi SE 16.1 mph 21.9 mph N/A   Scattered Clouds
3:15 PM 73.2 °F 66.6 °F 80% 30.16 in 10.0 mi SE 11.5 mph 21.9 mph N/A   Mostly Cloudy
3:35 PM 74.3 °F 66.7 °F 77% 30.16 in 10.0 mi SE 11.5 mph 19.6 mph N/A   Overcast
3:55 PM 74.8 °F 66.9 °F 76% 30.16 in 10.0 mi ESE 12.7 mph 20.7 mph N/A   Mostly Cloudy
4:15 PM 73.9 °F 66.7 °F 78% 30.16 in 10.0 mi SE 11.5 mph 16.1 mph N/A   Mostly Cloudy
4:35 PM 75.2 °F 67.3 °F 76% 30.16 in 10.0 mi SE 10.4 mph - N/A   Mostly Cloudy
4:55 PM 74.3 °F 67.3 °F 79% 30.15 in 10.0 mi SE 11.5 mph 19.6 mph N/A   Scattered Clouds
5:15 PM 74.7 °F 68.0 °F 80% 30.16 in 10.0 mi SE 11.5 mph 17.3 mph N/A   Clear
5:35 PM 74.3 °F 67.6 °F 80% 30.16 in 10.0 mi SE 13.8 mph 17.3 mph N/A   Mostly Cloudy
6:15 PM 73.4 °F 65.7 °F 77% 30.16 in 10.0 mi SSE 8.1 mph 16.1 mph N/A   Clear
6:35 PM 73.2 °F 66.4 °F 79% 30.15 in 10.0 mi SE 10.4 mph - N/A   Scattered Clouds
6:55 PM 72.7 °F 67.5 °F 84% 30.16 in 10.0 mi SE 9.2 mph 16.1 mph N/A   Mostly Cloudy
7:15 PM 72.0 °F 66.7 °F 84% 30.16 in 10.0 mi SE 11.5 mph - N/A   Mostly Cloudy
7:35 PM 71.6 °F 66.0 °F 82% 30.17 in 10.0 mi SSE 8.1 mph - N/A   Overcast
7:55 PM 71.6 °F 66.4 °F 84% 30.17 in 10.0 mi SSE 6.9 mph - N/A   Scattered Clouds
8:15 PM 71.6 °F 66.7 °F 85% 30.17 in 10.0 mi SSE 6.9 mph - N/A   Mostly Cloudy
8:35 PM 71.2 °F 66.7 °F 86% 30.17 in 10.0 mi SSE 5.8 mph - N/A   Overcast
8:55 PM 71.2 °F 66.4 °F 85% 30.17 in 10.0 mi SE 5.8 mph - N/A   Mostly Cloudy
9:15 PM 71.6 °F 65.7 °F 81% 30.17 in 10.0 mi SSE 8.1 mph - N/A   Mostly Cloudy
9:35 PM 71.6 °F 65.8 °F 82% 30.17 in 10.0 mi SSE 8.1 mph - N/A   Overcast
9:55 PM 71.1 °F 65.5 °F 82% 30.18 in 10.0 mi South 8.1 mph - N/A   Mostly Cloudy
10:15 PM 71.4 °F 67.3 °F 87% 30.19 in 10.0 mi SSE 6.9 mph - N/A   Mostly Cloudy
10:35 PM 71.6 °F 67.3 °F 86% 30.18 in 10.0 mi SSE 9.2 mph - N/A   Overcast
10:55 PM 71.6 °F 66.7 °F 85% 30.18 in 10.0 mi SSE 11.5 mph - N/A   Overcast
11:15 PM 71.6 °F 66.4 °F 84% 30.17 in 10.0 mi SSE 12.7 mph - N/A   Overcast
11:35 PM 71.6 °F 66.6 °F 84% 30.17 in 10.0 mi South 8.1 mph 16.1 mph N/A   Scattered Clouds
11:55 PM 71.6 °F 66.6 °F 84% 30.17 in 10.0 mi South 11.5 mph 17.3 mph N/A   Scattered Clouds